Regional Weather Roundup
Issued by NWS Charleston, SC

Current Version | Previous Version | Text Only | Print | Product List | Glossary Off
Versions: 1 2 3 4 5 6 7 8 9 10 11 12 13 14 15 16 17 18 19 20 21 22 23 24 25 26 27 28 29 30 31 32 33 34 35 36 37 38 39 40 41 42 43 44 45 46 47 48 49 50
000 ASUS42 KCHS 212325 RWRCHS REGIONAL WEATHER ROUNDUP NATIONAL WEATHER SERVICE CHARLESTON SC 700 PM EDT TUE OCT 21 2014 NOTE: "FAIR" INDICATES FEW OR NO CLOUDS BELOW 12,000 FEET WITH NO SIGNIFICANT WEATHER AND/OR OBSTRUCTIONS TO VISIBILITY. NOT ALL STATIONS ARE QUALITY CONTROLLED BY THE NATIONAL WEATHER SERVICE. USE DATA WITH CAUTION...ESPECIALLY DEWPOINT OBSERVATIONS. SCZ027-030-031-034>040-042>050-220000- ...SOUTH CAROLINA... CITY SKY/WX TMP DP RH WIND PRES REMARKS N CHARLESTON CLEAR 73 53 49 W5 29.88R WATERFRONT PRK N/A 72 N/A N/A SW5 N/A FORT JOHNSON NOT AVBL JOHNS ISLAND CLEAR 70 63 78 SW5 29.89R PINOPOLIS NOT AVBL MONCKS CORNER FAIR 64 61 88 CALM 29.87S SUMMERVILLE FAIR 64 59 82 S3 29.89R BEAUFORT MCAS CLEAR 70 58 65 SW5 29.89R BEAUFORT ARPT FAIR 66 61 82 S3 29.89R HILTON HEAD IS CLEAR 66 61 82 CALM 29.91R GEORGETOWN NOT AVBL WALTERBORO CLEAR 66 55 68 CALM 29.89R ORANGEBURG CLEAR 68 47 46 CALM 29.88R BARNWELL FAIR 72 48 43 W3 29.90R AIKEN FAIR 68 54 60 W6 29.93R MANNING FAIR 63 57 82 CALM 29.87S KINGSTREE NOT AVBL COLUMBIA PTCLDY 73 48 41 NW7 29.87R SUMTER PTCLDY 71 51 49 CALM 29.86R FLORENCE CLEAR 69 48 47 W3 29.86R MYRTLE BEACH NOT AVBL N MYRTLE BEACH PTCLDY 71 60 68 SW9 29.85S $$ GAZ063-065-086>088-099>101-113>116-118-119-134-136>141-150-220000- ...GEORGIA... CITY SKY/WX TMP DP RH WIND PRES REMARKS SAVANNAH ARPT CLEAR 73 56 54 S6 29.90R HUNTER AAF CLEAR 68 59 72 SW2 29.88R FORT STEWART CLEAR 70 57 62 CALM 29.89R STATESBORO NOT AVBL SYLVANIA CLEAR 68 57 66 CALM 29.91R CLAXTON FAIR 64 59 82 CALM 29.91R THOMSON CLEAR 70 58 66 W5 29.96R AUGUSTA-BUSH CLEAR 73 50 44 NW9 29.89R AUGUSTA-DANIEL CLEAR 74 51 44 W7 29.90R SWAINSBORO FAIR 70 54 56 CALM 29.92R HAZE VIDALIA CLEAR 72 52 49 CALM 29.92R ALMA CLEAR 71 54 54 W3 29.91S WAYCROSS CLEAR 70 61 71 CALM 29.92S JESUP FAIR 68 61 77 CALM 29.91S BRUNSWICK CLEAR 68 59 73 CALM 29.92R SAINT SIMONS CLEAR 72 63 73 S3 29.91R $$ SCZ027-028-034-036>038-045-046-048>050-GAZ119-141-220000- ...LAKE AND SUPPLEMENTAL COASTAL OBSERVATIONS... STATION/POSITION TIME TEMP WIND PRES WAVE SWELL AIR SEA DIR/SP/G HT/PER HT/PER/DIR (UTC) (F) (DEG/KT/KT) (MB) (FT/S) (FT/S/D) UPR LAKE MARION NOT AVBL WINYAH BAY 2300 71 230/ 3 1011.0S LAKE MURRAY 2200 74 300/ 4/ 7 1010.8R ACE BASIN NERRS 2300 70 CALM 1012.0S FORT PULASKI 2300 72 200/ 3/ 3 1012.7R SAPELO ISLAND NOT AVBL $$ ANZ835-935-AMZ111-154-330-350-352-354-374-450-454-472-220000- ...C-MAN AND BUOY OBSERVATIONS... STATION/POSITION TIME TEMP WIND PRES WAVE SWELL AIR SEA DIR/SP/G HT/PER HT/PER/DIR (UTC) (F) (DEG/KT/KT) (MB) (FT/S) (FT/S/D) FOLLY BEACH CMAN 2300 72 230/ 9/ 11 1012.4R BUOY 41004 2300 74 79 240/ 12/ 16 1011.5R 2/ 8 2/ 8 BUOY 41008 2300 74 76 190/ 8/ 10 1012.7R 2/ 9 2/ 80/ 9 5E ST. MARYS GA 2300 78 N/A 2/ 9 FRYING PAN BUOY 2300 73 76 230/ 12/ 14 1011.9R 2/ 9 2/110/ 9 BUOY 41025 2300 73 220/ 16/ 19 1010.4F 3/ 9 2/110/ 9 CAPE LOOKOUT NC 2300 71 220/ 7/ 9 1010.7R BUOY 41002 2205 77 80 200/ 8/ 10 1012.5R 3/ 8 3/100/ 8 BUOY 41010 2300 78 80 60/ 2/ 2 1013.2F 2/ 8 2/ 60/ 8 BUOY 41012 NOT AVBL ST AUGUSTINE FL 2300 76 140/ 5/ 6 1013.6S CAPERS NEARSHORE 2200 73 220/ 17/ 19 N/A FRIPP NEARSHORE NOT AVBL $$

USA.gov is the U.S. government's official web portal to all federal, state and local government web resources and services.